TimeCST,TemperatureF,Dew PointF,Humidity,Sea Level PressureIn,VisibilityMPH,Wind Direction,Wind SpeedMPH,Gust SpeedMPH,PrecipitationIn,Events,Conditions,WindDirDegrees,DateUTC
12:00 AM,67,66,94,29.83,0,SW,1.2,,,Fog,Partial Fog,220,2012-10-20 06:00:00
12:00 AM,68.0,66.2,94,30.00,0.3,SW,1.2,-,N/A,Fog,Light Drizzle,220,2012-10-20 06:00:00
12:25 AM,68.0,66.2,94,30.00,0.7,South,2.3,-,N/A,,Light Drizzle,190,2012-10-20 06:25:00
1:00 AM,68.0,66.2,94,29.98,0.7,West,2.3,-,N/A,,Drizzle,270,2012-10-20 07:00:00
2:00 AM,68.0,66.2,94,29.98,1.9,NW,2.3,-,N/A,,Drizzle,310,2012-10-20 08:00:00
3:00 AM,67,66,94,29.83,3,Calm,Calm,,,,Mist,,2012-10-20 09:00:00
3:00 AM,68.0,66.2,94,29.97,3.1,Calm,Calm,-,N/A,,Light Drizzle,0,2012-10-20 09:00:00
4:00 AM,68.0,66.2,94,29.97,6.2,ESE,1.2,-,N/A,Fog,Light Drizzle,110,2012-10-20 10:00:00
5:00 AM,68.0,66.2,94,29.98,5.0,West,2.3,-,N/A,Fog,Drizzle,260,2012-10-20 11:00:00
6:00 AM,68,66,91,29.86,9,ENE,3.5,,,,Scattered Clouds,60,2012-10-20 12:00:00
6:00 AM,68.0,66.2,94,29.99,6.2,ENE,3.5,-,N/A,,Mostly Cloudy,60,2012-10-20 12:00:00
7:00 AM,75.2,66.2,73,30.01,6.2,SSW,3.5,-,N/A,Fog,Mostly Cloudy,200,2012-10-20 13:00:00
7:13 AM,69.8,66.2,88,30.01,6.2,SW,5.8,-,N/A,Fog,Mostly Cloudy,230,2012-10-20 13:13:00
8:00 AM,71.6,68.0,88,29.99,5.0,WSW,4.6,-,N/A,Fog,Fog,240,2012-10-20 14:00:00
9:00 AM,74,67,74,29.85,3,WSW,4.6,,,Fog,Patches of Fog,240,2012-10-20 15:00:00
9:00 AM,75.2,68.0,78,30.00,6.2,WSW,4.6,-,N/A,Fog,Scattered Clouds,240,2012-10-20 15:00:00
10:00 AM,77.0,68.0,74,29.99,6.2,WSW,5.8,-,N/A,,Scattered Clouds,240,2012-10-20 16:00:00
11:00 AM,77.0,68.0,74,29.97,6.2,WSW,9.2,-,N/A,,Scattered Clouds,240,2012-10-20 17:00:00
12:00 PM,79,68,61,29.81,9,WSW,10.4,,,,Partly Cloudy,240,2012-10-20 18:00:00
12:00 PM,78.8,68.0,69,29.94,6.2,WSW,10.4,-,N/A,,Scattered Clouds,240,2012-10-20 18:00:00
1:00 PM,77.0,68.0,74,29.91,6.2,WSW,11.5,-,N/A,,Scattered Clouds,240,2012-10-20 19:00:00
1:31 PM,73.4,68.0,83,29.90,6.2,WSW,12.7,-,N/A,,Scattered Clouds,250,2012-10-20 19:31:00
2:00 PM,73.4,66.2,78,29.89,4.3,West,9.2,-,N/A,Rain,Light Rain Showers,270,2012-10-20 20:00:00
3:00 PM,,,,,6,West,5.8,,,,,270,2012-10-20 21:00:00
3:00 PM,71.6,68.0,88,29.89,6.2,West,5.8,-,N/A,,Mostly Cloudy,270,2012-10-20 21:00:00
4:00 PM,69.8,68.0,94,29.89,3.1,SW,8.1,-,N/A,Rain,Rain,220,2012-10-20 22:00:00
5:00 PM,69.8,66.2,88,29.90,5.0,SW,8.1,-,N/A,Rain,Light Rain,230,2012-10-20 23:00:00
6:00 PM,69,67,90,29.79,2,SW,4.6,,,Rain,Light Rain,230,2012-10-21 00:00:00
6:00 PM,68.0,66.2,94,29.93,1.9,SW,4.6,-,N/A,Rain,Light Rain,230,2012-10-21 00:00:00
7:00 PM,68.0,66.2,94,29.94,3.1,WSW,3.5,-,N/A,Rain,Light Rain,250,2012-10-21 01:00:00
8:00 PM,69.8,66.2,88,29.97,3.1,WSW,3.5,-,N/A,,Overcast,240,2012-10-21 02:00:00
9:00 PM,69,67,90,29.83,3,Calm,Calm,,,Fog,Light Fog,,2012-10-21 03:00:00
9:00 PM,69.8,66.2,88,29.97,3.1,Calm,Calm,-,N/A,,Mostly Cloudy,0,2012-10-21 03:00:00
10:00 PM,68.0,66.2,94,29.97,1.9,WSW,4.6,-,N/A,,Mostly Cloudy,240,2012-10-21 04:00:00
11:00 PM,68.0,66.2,94,29.98,1.9,South,2.3,-,N/A,,Mostly Cloudy,180,2012-10-21 05:00:00